Regional Weather Roundup
Issued by NWS

Home | Current Version | Previous Version | Graphics & Text | Print | Product List | Glossary On
Versions: 1 2 3 4 5 6 7 8 9 10 11 12 13 14 15 16 17 18 19 20 21 22 23 24 25 26 27 28 29 30 31 32 33 34 35 36 37 38 39 40 41 42 43 44 45 46 47 48 49 50
029
ASUS43 KFSD 211910
RWRSD

WEATHER ROUNDUP FOR SOUTH DAKOTA
NATIONAL WEATHER SERVICE SIOUX FALLS SD
100 PM CST SUN JAN 21 2018

NOTE: "FAIR" INDICATES FEW OR NO CLOUDS BELOW 12,000 FEET WITH NO
SIGNIFICANT WEATHER AND/OR OBSTRUCTIONS TO VISIBILITY.


SDZ001>005-009-010-012>017-212000-
NORTHWEST AND NORTH CENTRAL SOUTH DAKOTA

CITY           SKY/WX    TMP DP  RH WIND       PRES   REMARKS
BUFFALO          N/A     34  22  61 NW14      29.93F WCI  25
FAITH            N/A     32  23  69 N10       29.99F WCI  24
MOBRIDGE       CLOUDY    32  24  72 N5        29.99F WCI  27
$$

SDZ012>016-024>037-041>051-057-063-072>074-212000-
SOUTHWEST AND SOUTH CENTRAL SOUTH DAKOTA

CITY           SKY/WX    TMP DP  RH WIND       PRES   REMARKS
RAPID CTY ARPT CLOUDY    33  25  72 N13       29.99F WCI  24
PIERRE         CLOUDY    32  28  85 N7        30.00  WCI  26
CUSTER         CLOUDY    25  18  74 NE12      29.89F WCI  14
ELLSWORTH AFB  CLOUDY    34  24  68 N13       29.98F WCI  25
PHILIP         CLOUDY    32  29  88 N7        30.00F WCI  26
PINE RIDGE     LGT SNOW  31  28  89 N12       29.96F VSB 1   WCI  22
SPEARFISH        N/A     30  21  69 W7        30.00F WCI  23
WINNER         HVY SNOW  34  32  92 N10       29.97F VSB 1/4 WCI  26
$$

SDZ004>011-016>023-039-040-212000-
NORTHEAST SOUTH DAKOTA

CITY           SKY/WX    TMP DP  RH WIND       PRES   REMARKS
ABERDEEN       PTSUNNY   30  25  81 N10       30.04F WCI  21
WATERTOWN      LGT SNOW  32  30  92 NE3       29.99S FOG
BROOKINGS      CLOUDY    34  31  88 N13       29.96F WCI  25
SISSETON         N/A     30  25  81 NW13      30.03F WCI  20
$$

SDZ017-020-022-023-036>040-048>070-212000-
SOUTHEAST SOUTH DAKOTA

CITY           SKY/WX    TMP DP  RH WIND       PRES   REMARKS
SIOUX FALLS    PTSUNNY   40  32  73 N16       29.92F
HURON          LGT SNOW  31  31 100 N12       30.01F VSB 3/4 WCI  22
CHAMBERLAIN    LGT SNOW  33  33 100 NW12G17   29.98F WCI  25
MITCHELL       CLOUDY    35  33  92 N13       29.98F WCI  26
YANKTON        CLOUDY    41  30  65 N13       29.89F
$$

ABBREVIATIONS USED IN REMARKS
   TC - TEMPERATURE IN CELSIUS
  WCI - WIND CHILL INDEX
   HX - HEAT INDEX
  VSB - VISIBILITY





USA.gov is the U.S. government's official web portal to all federal, state and local government web resources and services.